"Pseudo-MPEC" for P117Z5U

Created 2020 Oct 21 0:07:28 UT using Find_Orb

Click here for an explanation of pseudo-MPECs

 
 Astrometry: 
     P117Z5U  C2020 10 15:NKQ9=@P\BR)\[p-N@[K?Adk$'h3\a%gUB-KLin%L*:vkh=L:sF5F51
     P117Z5U  C2020 10 15]79dY'?ohx]wujIG4qL`U@]F/s#ssl10,OD3n9UGv-BA0iU'p;\6F51
     P117Z5U  C2020 10 15x(yRUNok9U@]BivQ6M8XnHGIO=e.=H-IWd)`3tyB;Astrometry6F51
     P117Z5U  C2020 10 15*2o@9.x-0y0`=O%%FM2redacted;o+PSE=MD_h4#LMl:5DGED2_;F51
     P117Z5U ^C2020 10 18.37407102 41 14.939+22 01 21.76   ~AIKM 22.06GVNEOCP568
     P117Z5U ^C2020 10 18.37525102 41 14.963+22 01 20.73   ~AIKM 22.26GVNEOCP568
     P117Z5U ^C2020 10 18.37642702 41 14.988+22 01 19.68   ~AIKM 22.23GVNEOCP568
     P117Z5U  C2020 10 20ae@-l,VQ]/v]t:%.=R/DxIYCJ%g\d\wO*vbaMypJT-Dn3-ee0=?iF51
     P117Z5U  C2020 10 20`Cn'Z3cW?8(Wf'Mj[54)Huog7%*0HE.qLh*jyFc;9kr%Mob5]l7YF51
     P117Z5U  C2020 10 20;$J@b5B-C941C$0DA]3R:ReVAH2[=j`7SuZ:sNOq,9;NsR;LH/X3F51
     P117Z5U  C2020 10 20eT5Bfq_WWwdR1XJ^-yUmlJu@jF$y$7?2MaSxFd/wN;b`eGG;d'j*F51
     P117Z5U  C2020 10 20][PclickbZ/ySu:NX;8Al@\U'!VNsXC^_4BwoM_)\8]W?Q`QFxs9F52
     P117Z5U  C2020 10 20s/He$(^6LvP`?M/l2l($)9C[yO[RHNK1vKvTS[EYWusP(vhO$lXrF52
     P117Z5U  C2020 10 20jmq?OIA#tRTyO.-0-fA\`r^BHqMM*E=wp6@W^n/8Hhere8/.uxj5F52
     P117Z5U  C2020 10 20J)2r/for]E6gDS?;Cy5explanation]]dO_VPnY8DW\Y'eEyO)yeF52

Station data:
(568) Mauna Kea  (N19.826116 W155.472200)  US/Hawaii.
(F51) Pan-STARRS 1, Haleakala  (N20.707235 W156.255910)  US/Hawaii.
   Observers N. Primak, A. Schultz, S. Watters, J. Thiel, T. Goggia. Measurer
   PS1 Science Consortium. 1.8-m Ritchey-Chrétien + CCD.
(F52) Pan-STARRS 2, Haleakala  (N20.707384 W156.255910)  US/Hawaii. 1.8-m
   Ritchey-Chrétien + CCD.

Orbital elements:  P117Z5U
   Perihelion 2020 Nov 9.278071 +/- 0.368 TT =  6:40:25 (JD 2459162.778071)
Epoch 2020 Oct 20.0 TT = JDT 2459142.5   Earth MOID: 0.4604   Ma: 0.0092
M 355.11532169 +/- 0.08             (J2000 ecliptic)          AutoNEOCP
n   0.24088475 +/- 0.00182          Peri.  181.73826 +/- 0.25
a   2.55817256 +/- 0.0129           Node   224.33868 +/- 0.010
e   0.4326500 +/- 0.00211           Incl.    9.05958 +/- 0.039
P   4.09                   H 22.7   G  0.15   U  8.5  
q 1.45137914 +/- 0.0019    Q 3.66496597 +/- 0.0236
From 15 observations 2020 Oct. 15-20; mean residual 0".08
Residuals in arcseconds: 
201015 F51  .10+  .04+    201018 568  .02+  .01+    201020 F51  .11-  .03+    
201015 F51  .10-  .04+    201018 568  .03+  .00     201020 F52  .13+  .09-    
201015 F51  .02-  .00     201020 F51  .07-  .06+    201020 F52  .12+  .14+    
201015 F51  .00   .08-    201020 F51  .09-  .13+    201020 F52  .02-  .03+    
201018 568  .02+  .00     201020 F51  .04-  .12-    201020 F52  .03+  .18-    

Ephemerides (geocentric):
Date (UTC) HH   RA              Dec         delta   r     elong  mag " sig PA
---- -- -- --  -------------   -----------  ------ ------ -----  --- ---- ---
2020 10 21 00  02 42 19.633   +21 20 04.19  .48265 1.4626 162.3 22.7 .145  64
2020 10 21 01  02 42 20.592   +21 19 23.36  .48253 1.4625 162.3 22.7 .153  64
2020 10 21 02  02 42 21.548   +21 18 42.48  .48242 1.4625 162.3 22.7 .162  64
2020 10 21 03  02 42 22.502   +21 18 01.56  .48231 1.4625 162.4 22.7 .170  64
2020 10 21 04  02 42 23.454   +21 17 20.60  .48219 1.4624 162.4 22.7 .179  64
2020 10 21 05  02 42 24.403   +21 16 39.58  .48208 1.4624 162.5 22.7 .187  64
2020 10 21 06  02 42 25.350   +21 15 58.53  .48197 1.4623 162.5 22.7 .196  64
2020 10 21 07  02 42 26.295   +21 15 17.43  .48186 1.4623 162.6 22.7 .205  64
2020 10 21 08  02 42 27.237   +21 14 36.28  .48174 1.4622 162.6 22.7 .214  64
2020 10 21 09  02 42 28.177   +21 13 55.09  .48163 1.4622 162.6 22.7 .223  64
2020 10 21 10  02 42 29.115   +21 13 13.85  .48152 1.4621 162.7 22.7 .232  64
2020 10 21 11  02 42 30.050   +21 12 32.57  .48141 1.4621 162.7 22.7 .242  64
2020 10 21 12  02 42 30.983   +21 11 51.24  .48130 1.4620 162.8 22.7 .251  64
2020 10 21 13  02 42 31.914   +21 11 09.87  .48119 1.4620 162.8 22.7 .260  64
2020 10 21 14  02 42 32.842   +21 10 28.45  .48108 1.4619 162.9 22.7 .270  64
2020 10 21 15  02 42 33.768   +21 09 46.99  .48097 1.4619 162.9 22.7 .280  64
2020 10 21 16  02 42 34.692   +21 09 05.49  .48086 1.4618 162.9 22.7 .290  64
2020 10 21 17  02 42 35.614   +21 08 23.94  .48075 1.4618 163.0 22.6 .299  64
2020 10 21 18  02 42 36.533   +21 07 42.34  .48064 1.4617 163.0 22.6 .309  64
2020 10 21 19  02 42 37.450   +21 07 00.71  .48054 1.4617 163.1 22.6 .320  64
2020 10 21 20  02 42 38.365   +21 06 19.02  .48043 1.4617 163.1 22.6 .330  64
2020 10 21 21  02 42 39.277   +21 05 37.30  .48032 1.4616 163.2 22.6 .340  64
2020 10 21 22  02 42 40.187   +21 04 55.53  .48021 1.4616 163.2 22.6 .350  64
2020 10 21 23  02 42 41.095   +21 04 13.72  .48010 1.4615 163.2 22.6 .361  64
2020 10 22 00  02 42 42.001   +21 03 31.86  .48000 1.4615 163.3 22.6 .371  64
2020 10 22 01  02 42 42.905   +21 02 49.96  .47989 1.4614 163.3 22.6 .382  64
2020 10 22 02  02 42 43.806   +21 02 08.01  .47978 1.4614 163.4 22.6 .393  64
2020 10 22 03  02 42 44.705   +21 01 26.03  .47968 1.4613 163.4 22.6 .404  64
2020 10 22 04  02 42 45.602   +21 00 43.99  .47957 1.4613 163.5 22.6 .415  64
2020 10 22 05  02 42 46.496   +21 00 01.92  .47947 1.4612 163.5 22.6 .426  64
2020 10 22 06  02 42 47.389   +20 59 19.80  .47936 1.4612 163.5 22.6 .437  64
2020 10 22 07  02 42 48.279   +20 58 37.64  .47926 1.4612 163.6 22.6 .448  64
2020 10 22 08  02 42 49.167   +20 57 55.44  .47915 1.4611 163.6 22.6 .460  64
2020 10 22 09  02 42 50.052   +20 57 13.19  .47905 1.4611 163.7 22.6 .471  64
2020 10 22 10  02 42 50.936   +20 56 30.90  .47894 1.4610 163.7 22.6 .483  64
2020 10 22 11  02 42 51.817   +20 55 48.57  .47884 1.4610 163.8 22.6 .494  64
2020 10 22 12  02 42 52.696   +20 55 06.19  .47873 1.4609 163.8 22.6 .506  64
2020 10 22 13  02 42 53.573   +20 54 23.78  .47863 1.4609 163.8 22.6 .518  64
2020 10 22 14  02 42 54.448   +20 53 41.32  .47853 1.4608 163.9 22.6 .530  64
2020 10 22 15  02 42 55.321   +20 52 58.81  .47843 1.4608 163.9 22.6 .542  64
2020 10 22 16  02 42 56.191   +20 52 16.27  .47832 1.4608 164.0 22.6 .554  64
2020 10 22 17  02 42 57.059   +20 51 33.68  .47822 1.4607 164.0 22.6 .566  64
2020 10 22 18  02 42 57.925   +20 50 51.05  .47812 1.4607 164.1 22.6 .579  64
2020 10 22 19  02 42 58.789   +20 50 08.38  .47802 1.4606 164.1 22.6 .591  64
2020 10 22 20  02 42 59.651   +20 49 25.67  .47792 1.4606 164.2 22.6 .604  64
2020 10 22 21  02 43 00.511   +20 48 42.91  .47781 1.4605 164.2 22.6 .616  64
2020 10 22 22  02 43 01.368   +20 48 00.12  .47771 1.4605 164.2 22.6 .629  64
2020 10 22 23  02 43 02.224   +20 47 17.28  .47761 1.4604 164.3 22.6 .642  64